Michigan City, IN

8:11 AM CST on December 18, 2017 (GMT -0600)
Michigan City Municipal

Weather History for KMGC - November, 2013

Change the Weather History Date:

Sunday, November 10, 2013

  Actual Average (KSBN) Record (KSBN)
Temperature  
Mean Temperature 38 °F -  
Max Temperature 44 °F 50 °F 71 °F (1999)
Min Temperature 32 °F 35 °F 18 °F (1957)
Degree Days  
Heating Degree Days 27    
Moisture  
Dew Point 29 °F    
Average Humidity 64    
Maximum Humidity 93    
Minimum Humidity 45    
Precipitation  
Precipitation 0.00 in - - ()
Sea Level Pressure  
Sea Level Pressure 30.25 in    
Wind  
Wind Speed 11 mph (WNW)    
Max Wind Speed 21 mph    
Max Gust Speed 33 mph    
Visibility 10 miles    
Events      
Averages and records for this station are not official NWS values.
T = Trace of Precipitation, MM = Missing Value Source: NWS Daily Summary

Daily Weather History Graph

Daily Weather History Graph

Search for Another Location

Airport or City:

Trip Planner

Search our weather history database for the weather conditions in past years. The results will help you decide how hot, cold, wet, or windy it might be!

Date:

Astronomy

Nov. 10, 2013 Rise Set
Actual Time 6:30 AM CST 4:31 PM CST
Civil Twilight 6:01 AM CST 5:00 PM CST
Nautical Twilight 5:27 AM CST 5:34 PM CST
Astronomical Twilight 4:55 AM CST 6:06 PM CST
Moon 12:41 PM CST (11/10) No Moon Set
Length of Visible Light 10h 59m
Length of Day
10h 00m
First Quarter, 56% of the Moon is Illuminated
Nov 10
First Quarter
Nov 17
Full
Nov 25
Last Quarter
Dec 2
New
Dec 9
First Quarter

Hourly Weather History & Observations

Time (CST) Temp. Windchill Dew Point Humidity Pressure Visibility Wind Dir Wind Speed Gust Speed Precip Events Conditions
12:15 AM 42.8 °F 35.1 °F 26.6 °F 53% 30.08 in 10.0 mi NW 16.1 mph 25.3 mph N/A   Mostly Cloudy
12:35 AM 42.8 °F 34.5 °F 23.0 °F 46% 30.09 in 10.0 mi WNW 18.4 mph 27.6 mph N/A   Scattered Clouds
12:55 AM 42.8 °F 35.8 °F 23.0 °F 46% 30.09 in 10.0 mi WNW 13.8 mph 26.5 mph N/A   Mostly Cloudy
1:15 AM 41.0 °F 32.5 °F 23.0 °F 49% 30.09 in 10.0 mi WNW 17.3 mph 29.9 mph N/A   Mostly Cloudy
1:35 AM 41.0 °F 32.5 °F 21.2 °F 45% 30.09 in 10.0 mi WNW 17.3 mph 26.5 mph N/A   Mostly Cloudy
1:55 AM 41.0 °F 33.5 °F 23.0 °F 49% 30.09 in 10.0 mi WNW 13.8 mph 24.2 mph N/A   Overcast
2:15 AM 41.0 °F 33.1 °F 24.8 °F 53% 30.10 in 10.0 mi NW 15.0 mph 25.3 mph N/A   Overcast
2:35 AM 41.0 °F 31.6 °F 24.8 °F 53% 30.11 in 10.0 mi WNW 20.7 mph 25.3 mph N/A   Overcast
2:55 AM 41.0 °F 32.8 °F 24.8 °F 53% 30.12 in 10.0 mi WNW 16.1 mph 28.8 mph N/A   Mostly Cloudy
3:15 AM 41.0 °F 34.3 °F 26.6 °F 57% 30.12 in 10.0 mi WNW 11.5 mph 27.6 mph N/A   Scattered Clouds
3:35 AM 41.0 °F 33.9 °F 28.4 °F 61% 30.13 in 10.0 mi WNW 12.7 mph 26.5 mph N/A   Mostly Cloudy
3:55 AM 41.0 °F 32.8 °F 28.4 °F 61% 30.14 in 10.0 mi WNW 16.1 mph 25.3 mph N/A   Mostly Cloudy
4:15 AM 41.0 °F 32.5 °F 28.4 °F 61% 30.15 in 10.0 mi WNW 17.3 mph 33.4 mph N/A   Mostly Cloudy
4:35 AM 39.2 °F 31.2 °F 28.4 °F 65% 30.16 in 10.0 mi WNW 13.8 mph 23.0 mph N/A   Mostly Cloudy
4:55 AM 39.2 °F 30.8 °F 28.4 °F 65% 30.17 in 10.0 mi WNW 15.0 mph 24.2 mph N/A   Scattered Clouds
5:15 AM 39.2 °F 32.0 °F 28.4 °F 65% 30.18 in 10.0 mi WNW 11.5 mph 21.9 mph N/A   Scattered Clouds
5:35 AM 39.2 °F 31.6 °F 28.4 °F 65% 30.19 in 10.0 mi WNW 12.7 mph 23.0 mph N/A   Mostly Cloudy
5:55 AM 39.2 °F 30.5 °F 28.4 °F 65% 30.19 in 10.0 mi NW 16.1 mph 25.3 mph N/A   Mostly Cloudy
6:15 AM 39.2 °F 32.5 °F 28.4 °F 65% 30.21 in 10.0 mi NW 10.4 mph 25.3 mph N/A   Mostly Cloudy
6:35 AM 39.2 °F 31.6 °F 28.4 °F 65% 30.22 in 10.0 mi NW 12.7 mph 23.0 mph N/A   Mostly Cloudy
6:55 AM 39.2 °F 32.5 °F 28.4 °F 65% 30.23 in 10.0 mi NW 10.4 mph 19.6 mph N/A   Overcast
7:15 AM 39.2 °F 30.2 °F 28.4 °F 65% 30.24 in 10.0 mi NW 17.3 mph 25.3 mph N/A   Overcast
7:35 AM 39.2 °F 32.5 °F 28.4 °F 65% 30.24 in 10.0 mi NW 10.4 mph 20.7 mph N/A   Overcast
7:55 AM 41.0 °F 32.8 °F 28.4 °F 61% 30.25 in 10.0 mi WNW 16.1 mph 28.8 mph N/A   Overcast
8:15 AM 41.0 °F 35.2 °F 30.2 °F 65% 30.27 in 10.0 mi NW 9.2 mph 17.3 mph N/A   Overcast
8:35 AM 41.0 °F 35.2 °F 30.2 °F 65% 30.27 in 10.0 mi WNW 9.2 mph 19.6 mph N/A   Overcast
8:55 AM 41.0 °F 33.9 °F 28.4 °F 61% 30.28 in 10.0 mi NW 12.7 mph 18.4 mph N/A   Overcast
9:15 AM 41.0 °F 33.1 °F 28.4 °F 61% 30.29 in 10.0 mi NW 15.0 mph 19.6 mph N/A   Mostly Cloudy
9:35 AM 41.0 °F 33.1 °F 28.4 °F 61% 30.30 in 10.0 mi NNW 15.0 mph 24.2 mph N/A   Mostly Cloudy
9:55 AM 42.8 °F 35.8 °F 30.2 °F 61% 30.31 in 10.0 mi NNW 13.8 mph 23.0 mph N/A   Overcast
10:15 AM 42.8 °F 37.0 °F 30.2 °F 61% 30.32 in 10.0 mi NW 10.4 mph 20.7 mph N/A   Overcast
10:35 AM 42.8 °F 36.6 °F 30.2 °F 61% 30.32 in 10.0 mi WNW 11.5 mph 20.7 mph N/A   Overcast
10:55 AM 41.0 °F 34.3 °F 30.2 °F 65% 30.32 in 10.0 mi NW 11.5 mph 17.3 mph N/A   Overcast
11:15 AM 42.8 °F 38.6 °F 30.2 °F 61% 30.32 in 10.0 mi NNW 6.9 mph 19.6 mph N/A   Overcast
11:35 AM 44.6 °F 39.7 °F 30.2 °F 57% 30.32 in 10.0 mi NW 9.2 mph 17.3 mph N/A   Overcast
11:55 AM 44.6 °F 38.4 °F 30.2 °F 57% 30.32 in 10.0 mi WNW 12.7 mph 19.6 mph N/A   Overcast
12:15 PM 42.8 °F 39.3 °F 30.2 °F 61% 30.32 in 10.0 mi NW 5.8 mph 16.1 mph N/A   Overcast
12:35 PM 44.6 °F 40.2 °F 30.2 °F 57% 30.32 in 10.0 mi NNW 8.1 mph - N/A   Overcast
12:55 PM 44.6 °F 40.2 °F 30.2 °F 57% 30.32 in 10.0 mi NW 8.1 mph 16.1 mph N/A   Mostly Cloudy
1:15 PM 42.8 °F 37.0 °F 28.4 °F 57% 30.31 in 10.0 mi NW 10.4 mph - N/A   Scattered Clouds
1:35 PM 44.6 °F 41.4 °F 30.2 °F 57% 30.31 in 10.0 mi NW 5.8 mph - N/A   Scattered Clouds
1:55 PM 44.6 °F 40.7 °F 28.4 °F 53% 30.31 in 10.0 mi NW 6.9 mph 17.3 mph N/A   Scattered Clouds
2:15 PM 44.6 °F 40.7 °F 30.2 °F 57% 30.31 in 10.0 mi West 6.9 mph - N/A   Clear
2:35 PM 44.6 °F 42.2 °F 28.4 °F 53% 30.31 in 10.0 mi NNW 4.6 mph - N/A   Clear
2:55 PM 44.6 °F 39.7 °F 30.2 °F 57% 30.31 in 10.0 mi WNW 9.2 mph - N/A   Clear
3:15 PM 44.6 °F 43.1 °F 28.4 °F 53% 30.32 in 10.0 mi WSW 3.5 mph - N/A   Clear
3:35 PM 42.8 °F 41.1 °F 28.4 °F 57% 30.32 in 10.0 mi West 3.5 mph - N/A   Clear
3:55 PM 42.8 °F - 28.4 °F 57% 30.32 in 10.0 mi Calm Calm - N/A   Clear
4:15 PM 42.8 °F - 28.4 °F 57% 30.31 in 10.0 mi Calm Calm - N/A   Clear
4:35 PM 41.0 °F - 28.4 °F 61% 30.31 in 10.0 mi Calm Calm - N/A   Clear
4:55 PM 39.2 °F - 28.4 °F 65% 30.31 in 10.0 mi Calm Calm - N/A   Clear
5:15 PM 37.4 °F - 28.4 °F 70% 30.30 in 10.0 mi Calm Calm - N/A   Clear
5:35 PM 35.6 °F - 28.4 °F 75% 30.30 in 10.0 mi Calm Calm - N/A   Clear
5:55 PM 35.6 °F - 28.4 °F 75% 30.30 in 4.0 mi Calm Calm - N/A   Haze
6:15 PM 32.0 °F - 28.4 °F 87% 30.30 in 7.0 mi Calm Calm - N/A   Clear
6:35 PM 32.0 °F - 28.4 °F 87% 30.30 in 5.0 mi Calm Calm - N/A   Haze
6:55 PM 32.0 °F 28.7 °F 30.2 °F 93% 30.28 in 5.0 mi SSE 3.5 mph - N/A   Clear
7:15 PM 32.0 °F - 28.4 °F 87% 30.28 in 7.0 mi Calm Calm - N/A   Clear
7:35 PM 35.6 °F - 28.4 °F 75% 30.28 in 7.0 mi Calm Calm - N/A   Clear
7:55 PM 32.0 °F - 28.4 °F 87% 30.29 in 7.0 mi Calm Calm - N/A   Scattered Clouds
8:15 PM 35.6 °F 32.8 °F 28.4 °F 75% 30.28 in 7.0 mi SSW 3.5 mph - N/A   Overcast
8:35 PM 35.6 °F 31.7 °F 28.4 °F 75% 30.29 in 7.0 mi SW 4.6 mph - N/A   Overcast
8:55 PM 37.4 °F 34.9 °F 30.2 °F 75% 30.28 in 10.0 mi SSW 3.5 mph - N/A   Overcast
9:15 PM 37.4 °F 32.1 °F 30.2 °F 75% 30.27 in 10.0 mi SSW 6.9 mph - N/A   Overcast
9:35 PM 37.4 °F 32.8 °F 30.2 °F 75% 30.27 in 10.0 mi SSW 5.8 mph - N/A   Overcast
9:55 PM 37.4 °F 33.8 °F 32.0 °F 81% 30.26 in 10.0 mi SSW 4.6 mph - N/A   Overcast
10:15 PM 37.4 °F 33.8 °F 32.0 °F 81% 30.25 in 10.0 mi SSW 4.6 mph - N/A   Overcast
10:35 PM 39.2 °F 35.9 °F 30.2 °F 70% 30.25 in 10.0 mi SSW 4.6 mph - N/A   Overcast
10:55 PM 39.2 °F 35.9 °F 30.2 °F 70% 30.24 in 10.0 mi SSW 4.6 mph - N/A   Overcast
11:15 PM 39.2 °F 35.9 °F 30.2 °F 70% 30.24 in 10.0 mi SSW 4.6 mph - N/A   Overcast
11:35 PM 39.2 °F 35.9 °F 30.2 °F 70% 30.24 in 10.0 mi SW 4.6 mph - N/A   Overcast
11:55 PM 39.2 °F 35.9 °F 30.2 °F 70% 30.23 in 10.0 mi South 4.6 mph - N/A   Overcast